New Castle, PA

2:50 AM EST on December 10, 2019 (GMT -0500)
New Castle Municipal

Weather History for KUCP - October, 2019

Change the Weather History Date:

Tuesday, October 22, 2019

  Actual Average Record
Temperature  
Mean Temperature 58 °F -  
Max Temperature 64 °F 62 °F 83 °F (1947)
Min Temperature 51 °F 38 °F 24 °F (1952)
Degree Days  
Heating Degree Days 6    
Growing Degree Days 8 (Base 50)    
Moisture  
Dew Point 52 °F    
Average Humidity 84    
Maximum Humidity 100    
Minimum Humidity 58    
Precipitation  
Precipitation 0.00 in - - ()
Sea Level Pressure  
Sea Level Pressure 29.82 in    
Wind  
Wind Speed 5 mph (SSW)    
Max Wind Speed 8 mph    
Max Gust Speed 16 mph    
Visibility 9 miles    
Events Rain    
Averages and records for this station are not official NWS values.
T = Trace of Precipitation, MM = Missing Value Source: NWS Daily Summary

Daily Weather History Graph

Daily Weather History Graph

Search for Another Location

Airport or City:

Astronomy

Oct. 22, 2019 Rise Set
Actual Time 7:40 AM EDT 6:30 PM EDT
Civil Twilight 7:12 AM EDT 6:58 PM EDT
Nautical Twilight 6:40 AM EDT 7:30 PM EDT
Astronomical Twilight 6:08 AM EDT 8:02 PM EDT
Moon 12:44 AM EDT (10/22) 3:43 PM EDT (10/22)
Length of Visible Light 11h 46m
Length of Day
10h 50m
Last Quarter, 37% of the Moon is Illuminated
Oct 22
Last Quarter
Oct 27
New
Nov 4
First Quarter
Nov 12
Full
Nov 19
Last Quarter

Hourly Weather History & Observations

Time (EDT) Temp. Dew Point Humidity Pressure Visibility Wind Dir Wind Speed Gust Speed Precip Events Conditions
12:56 AM 63.0 °F 52.0 °F 67% 29.85 in 10.0 mi Variable 4.6 mph - N/A   Overcast
1:56 AM 64.0 °F 52.0 °F 65% 29.84 in 10.0 mi Variable 6.9 mph - N/A   Overcast
2:56 AM 63.0 °F 53.1 °F 70% 29.82 in 10.0 mi Variable 3.5 mph - N/A   Overcast
3:56 AM 61.0 °F 54.0 °F 78% 29.83 in 7.0 mi Variable 3.5 mph - N/A Rain Light Rain
4:56 AM 57.9 °F 57.0 °F 97% 29.84 in 5.0 mi Calm Calm - N/A Rain Rain
5:02 AM 57.2 °F 57.2 °F 100% 29.81 in 4.0 mi Calm Calm - N/A Rain Rain
5:27 AM 59.0 °F 57.2 °F 94% 29.80 in 8.0 mi SSE 3.5 mph - N/A Rain Light Rain
5:56 AM 59.0 °F 57.9 °F 96% 29.82 in 10.0 mi SE 5.8 mph - N/A   Overcast
6:20 AM 59.0 °F 57.2 °F 94% 29.78 in 10.0 mi SE 6.9 mph - N/A   Overcast
6:56 AM 59.0 °F 57.9 °F 96% 29.82 in 10.0 mi South 5.8 mph - N/A Rain Light Rain
7:22 AM 57.2 °F 57.2 °F 100% 29.80 in 5.0 mi Variable 4.6 mph - N/A Rain Rain
7:36 AM 57.2 °F 57.2 °F 100% 29.79 in 6.0 mi WSW 3.5 mph - N/A Rain Heavy Rain
7:56 AM 57.9 °F 57.0 °F 97% 29.83 in 6.0 mi Calm Calm - N/A Rain Rain
8:56 AM 55.9 °F 55.0 °F 97% 29.85 in 7.0 mi Variable 4.6 mph - N/A Rain Rain
9:48 AM 55.4 °F 55.4 °F 100% 29.83 in 9.0 mi Variable 6.9 mph - N/A Rain Light Rain
9:52 AM 55.4 °F 55.4 °F 100% 29.82 in 10.0 mi South 4.6 mph - N/A Rain Light Rain
9:56 AM 55.9 °F 55.0 °F 97% 29.86 in 10.0 mi SSE 4.6 mph - N/A Rain Light Rain
10:56 AM 55.9 °F 54.0 °F 93% 29.81 in 10.0 mi SE 5.8 mph - N/A Rain Light Rain
11:27 AM 55.4 °F 53.6 °F 94% 29.77 in 10.0 mi SSE 8.1 mph - N/A   Overcast
11:40 AM 55.4 °F 53.6 °F 94% 29.79 in 10.0 mi Variable 6.9 mph - N/A   Overcast
11:56 AM 55.9 °F 55.0 °F 97% 29.83 in 10.0 mi Variable 5.8 mph - N/A   Overcast
12:51 PM 57.2 °F 53.6 °F 88% 29.78 in 10.0 mi SSE 5.8 mph - N/A   Overcast
12:56 PM 57.9 °F 54.0 °F 87% 29.81 in 10.0 mi Variable 5.8 mph - N/A   Overcast
1:14 PM 57.2 °F 53.6 °F 88% 29.78 in 10.0 mi Variable 4.6 mph - N/A   Overcast
1:42 PM 57.2 °F 53.6 °F 88% 29.76 in 10.0 mi Variable 4.6 mph - N/A   Mostly Cloudy
1:56 PM 57.9 °F 54.0 °F 87% 29.80 in 10.0 mi Variable 4.6 mph - N/A   Mostly Cloudy
2:56 PM 59.0 °F 53.1 °F 81% 29.79 in 10.0 mi Variable 6.9 mph - N/A   Scattered Clouds
3:36 PM 60.8 °F 53.6 °F 77% 29.75 in 10.0 mi Variable 3.5 mph - N/A   Mostly Cloudy
3:56 PM 61.0 °F 52.0 °F 72% 29.78 in 10.0 mi SSW 6.9 mph 16.1 mph N/A   Overcast
4:26 PM 62.6 °F 51.8 °F 68% 29.74 in 10.0 mi Variable 5.8 mph - N/A   Mostly Cloudy
4:56 PM 62.1 °F 51.1 °F 67% 29.78 in 10.0 mi Variable 5.8 mph - N/A   Mostly Cloudy
5:56 PM 60.1 °F 51.1 °F 72% 29.80 in 10.0 mi SW 4.6 mph - N/A   Partly Cloudy
6:56 PM 57.9 °F 43.0 °F 58% 29.83 in 10.0 mi WSW 6.9 mph - N/A   Partly Cloudy
7:56 PM 55.0 °F 41.0 °F 59% 29.87 in 10.0 mi WSW 5.8 mph - N/A   Scattered Clouds
8:56 PM 53.1 °F 42.1 °F 66% 29.90 in 10.0 mi WSW 4.6 mph - N/A   Mostly Cloudy
9:56 PM 53.1 °F 42.1 °F 66% 29.92 in 10.0 mi West 5.8 mph - N/A   Overcast
10:56 PM 53.1 °F 41.0 °F 64% 29.93 in 10.0 mi SW 5.8 mph - N/A   Overcast
11:56 PM 51.1 °F 39.9 °F 66% 29.93 in 10.0 mi WSW 5.8 mph - N/A   Overcast